Weather History for Wolf Point, MT

Change the Weather History Date:

Thursday, October 18, 2012

  Actual Average Record
Temperature  
Mean Temperature 38 °F -  
Max Temperature 53 °F 57 °F 84 °F (2003)
Min Temperature 23 °F 29 °F 20 °F (2010)
Degree Days  
Heating Degree Days 27    
Cooling Degree Days 0    
Moisture  
Dew Point 29 °F    
Average Humidity 65    
Maximum Humidity 92    
Minimum Humidity 38    
Precipitation  
Precipitation 0.00 in 0.03 in 0.19 in (2004)
Month to date precipitation 0.23 0.51  
Year to date precipitation 9.37 11.19  
Sea Level Pressure  
Sea Level Pressure 30.08 in    
Wind  
Wind Speed 18 mph (NW)    
Max Wind Speed 30 mph    
Max Gust Speed 38 mph    
Visibility 10 miles    
Events      
T = Trace of Precipitation, MM = Missing Value Source: NWS Daily Summary

Daily Weather History Graph

Daily Weather History Graph

Search for Another Location

Airport:

Trip Planner

Search our weather history database for the weather conditions in past years. The results will help you decide how hot, cold, wet, or windy it might be!

Date:

Astronomy

Oct. 18, 2012 Rise Set
Actual Time 7:26 AM MDT 6:06 PM MDT
Civil Twilight 6:55 AM MDT 6:38 PM MDT
Nautical Twilight 6:19 AM MDT 7:14 PM MDT
Astronomical Twilight 5:43 AM MDT 7:50 PM MDT
Moon 11:28 AM MDT (10/18) 8:27 PM MDT (10/18)
Length of Visible Light 11h 42m
Length of Day
10h 39m
Waxing Crescent, 15% of the Moon is Illuminated
Oct 18
Waxing Crescent
Oct 21
First Quarter
Oct 29
Full
Nov 6
Last Quarter
Nov 13
New

Hourly Weather History & Observations

Time (MDT) Temp. Windchill Dew Point Humidity Pressure Visibility Wind Dir Wind Speed Gust Speed Precip Events Conditions
12:53 AM 42.1 °F 32.3 °F 28.9 °F 60% 29.91 in 10.0 mi WNW 24.2 mph 38.0 mph N/A   Mostly Cloudy
1:53 AM 42.1 °F 31.3 °F 30.0 °F 62% 29.94 in 10.0 mi NW 29.9 mph 38.0 mph N/A   Mostly Cloudy
2:53 AM 41.0 °F 31.6 °F 30.0 °F 65% 29.96 in 10.0 mi NW 20.7 mph 32.2 mph N/A   Mostly Cloudy
3:53 AM 41.0 °F 31.1 °F 30.0 °F 65% 29.99 in 10.0 mi NW 23.0 mph 36.8 mph N/A   Partly Cloudy
4:53 AM 39.0 °F 28.5 °F 30.0 °F 70% 30.02 in 10.0 mi NW 23.0 mph 31.1 mph N/A   Clear
5:53 AM 39.0 °F 28.8 °F 30.0 °F 70% 30.04 in 10.0 mi NW 21.9 mph 35.7 mph N/A   Clear
6:53 AM 39.0 °F 28.8 °F 30.0 °F 70% 30.06 in 10.0 mi NW 21.9 mph 32.2 mph N/A   Scattered Clouds
7:09 AM 37.4 °F 26.9 °F 30.2 °F 75% 30.02 in 10.0 mi NW 20.7 mph 31.1 mph N/A   Mostly Cloudy
7:20 AM 37.4 °F 28.2 °F 30.2 °F 75% 30.02 in 10.0 mi NW 16.1 mph 26.5 mph N/A   Scattered Clouds
7:53 AM 37.9 °F 28.5 °F 30.0 °F 73% 30.09 in 10.0 mi NW 17.3 mph - N/A   Mostly Cloudy
8:53 AM 39.9 °F 33.4 °F 30.0 °F 68% 30.13 in 10.0 mi WNW 10.4 mph - N/A   Overcast
9:49 AM 41.0 °F 31.4 °F 30.2 °F 65% 30.08 in 10.0 mi NW 21.9 mph 27.6 mph N/A   Scattered Clouds
9:53 AM 41.0 °F 31.9 °F 30.0 °F 65% 30.13 in 10.0 mi NW 19.6 mph 27.6 mph N/A   Partly Cloudy
10:23 AM 39.2 °F 30.5 °F 30.2 °F 70% 30.10 in 10.0 mi NW 16.1 mph - N/A   Mostly Cloudy
10:53 AM 43.0 °F 35.4 °F 30.9 °F 62% 30.15 in 10.0 mi NNW 16.1 mph 24.2 mph N/A   Mostly Cloudy
11:27 AM 44.6 °F 36.6 °F 30.2 °F 57% 30.10 in 10.0 mi NW 19.6 mph - N/A   Scattered Clouds
11:53 AM 46.0 °F 39.6 °F 30.9 °F 56% 30.15 in 10.0 mi NW 15.0 mph 23.0 mph N/A   Clear
12:53 PM 48.0 °F - 30.9 °F 52% 30.14 in 10.0 mi NW 11.5 mph 23.0 mph N/A   Clear
1:53 PM 51.1 °F - 30.0 °F 44% 30.12 in 10.0 mi NNW 19.6 mph 26.5 mph N/A   Clear
2:53 PM 52.0 °F - 28.9 °F 41% 30.11 in 10.0 mi NW 15.0 mph 23.0 mph N/A   Clear
3:53 PM 53.1 °F - 28.0 °F 38% 30.10 in 10.0 mi NW 11.5 mph 20.7 mph N/A   Clear
4:53 PM 51.1 °F - 26.1 °F 38% 30.12 in 10.0 mi WNW 13.8 mph - N/A   Clear
5:53 PM 46.9 °F - 24.1 °F 41% 30.12 in 10.0 mi NNW 6.9 mph - N/A   Clear
6:53 PM 37.0 °F 34.5 °F 26.1 °F 65% 30.13 in 10.0 mi NNE 3.5 mph - N/A   Clear
7:53 PM 35.1 °F 30.1 °F 28.0 °F 76% 30.14 in 10.0 mi East 5.8 mph - N/A   Clear
8:53 PM 30.0 °F 25.2 °F 25.0 °F 82% 30.14 in 10.0 mi ENE 4.6 mph - N/A   Clear
9:53 PM 28.9 °F - 25.0 °F 85% 30.13 in 10.0 mi Calm Calm - N/A   Clear
10:53 PM 27.0 °F - 24.1 °F 89% 30.13 in 10.0 mi Calm Calm - N/A   Clear
11:53 PM 25.0 °F - 23.0 °F 92% 30.11 in 10.0 mi Calm Calm - N/A   Clear